Location: Elende
(51.4317°N, 10.6316°E)
Time: 01:37:32
(UTC+00:00)

Abrixas rocket - Pass Details

Date: 18 September 2020
Orbit: 328 x 336 km, 48.4° (Epoch: 23 October)

Event Time Altitude Azimuth Distance (km) Brightness Sun altitude
Rises 18:01:05 0° 239° (WSW) 2,093 6.6 -6.5°
Reaches altitude 10° 18:03:12 10° 229° (SW) 1,257 5.2 -6.9°
Maximum altitude 18:05:43 30° 164° (SSE) 618 2.9 -7.3°
Enters shadow 18:08:07 11° 101° (E) 1,206 3.9 -7.6°
